Location: Hernandez
(10.3704°N, 67.2181°W)
Time: 05:29:08
(UTC+00:00)

Centaur D AC-29 - Pass Details

Date: 13 April 2024
Orbit: 621 x 36200 km, 26.5° (Epoch: 25 May)

Event Time Altitude Azimuth Distance (km) Brightness Sun altitude
Rises 23:46:57 0° 228° (SW) 5,696 6.5 -17.0°
Reaches altitude 10° 23:52:35 10° 213° (SSW) 3,093 4.8 -18.4°
Maximum altitude 23:56:57 21° 162° (SSE) 1,592 2.8 -19.4°
Enters shadow 23:57:05 21° 159° (SSE) 1,578 2.8 -19.5°
